#timestamp,LO_Frequency,Hit,StdDev 
1569592815.5,286047000.7,N
1569592835.3,286047001.6,N
1569592855.2,286047000.0,N
1569592875.0,286046998.3,N
1569592875.9,286046998.3,N
1569592895.8,286046999.5,N
1569592915.6,286047001.2,N
1569592935.4,286047001.6,N
1569592955.3,286047000.6,N
1569592975.1,286046998.6,N
1569592995.9,286047000.5,N
1569593015.7,286047002.2,N
1569593035.5,286047003.4,N
1569593055.4,286047003.9,N
1569593075.2,286046999.8,N
1569593095.0,286047000.3,N
1569593095.9,286047000.3,N
1569593115.8,286047000.3,N
1569593135.6,286047000.1,N
1569593155.5,286047002.3,N
1569593175.3,286046999.8,N
1569593195.1,286047003.9,N
1569593215.9,286047004.3,N
1569593235.7,286047001.5,N
1569593255.5,286047004.4,N
1569593275.4,286047000.0,N
1569593295.2,286047000.0,N
1569593315.1,286047000.9,N
1569593316.0,286047000.9,N
1569593335.8,286046999.8,N
1569593355.6,286047001.8,N
1569593375.5,286047003.5,N
1569593395.3,286047005.8,Y
1569593415.2,286047001.4,P
1569593435.0,286046999.8,N
1569593435.9,286046999.8,N
1569593455.7,286047000.8,N
1569593475.6,286046999.9,N
1569593495.4,286047000.8,N
1569593515.3,286047002.4,Y
1569593535.1,286046999.0,P
1569593555.8,286046999.5,N
1569593575.7,286047000.5,N
1569593595.5,286046999.9,N
1569593615.4,286047000.2,N
1569593635.2,286047000.4,N
1569593655.0,286047001.0,N
1569593655.9,286047001.0,N
1569593675.8,286047001.2,N
1569593695.6,286047001.0,N
1569593715.5,286046999.6,N
1569593735.3,286046998.7,N
1569593755.1,286046998.2,N
1569593775.9,286046998.3,N
1569593795.7,286047001.1,N
1569593815.5,286046998.6,N
1569593835.4,286047001.1,N
1569593855.2,286047000.6,N
1569593875.1,286047001.0,N
1569593876.0,286047001.0,N
1569593895.8,286046998.8,N
1569593915.6,286046999.0,N
1569593935.5,286047000.6,N
1569593955.3,286047000.8,N
1569593975.1,286047000.7,N
1569593995.9,286047001.1,N
1569594015.7,286047000.7,N
1569594035.6,286047000.6,N
1569594055.4,286046998.5,N
1569594075.2,286046999.8,N
1569594095.1,286047001.8,N
1569594096.0,286047001.8,N
1569594115.8,286047003.7,Y
1569594135.7,286047003.9,P
1569594155.5,286047004.4,N
1569594175.3,286047002.8,N
1569594195.2,286047003.9,N
1569594215.9,286047003.8,N
1569594235.7,286047002.9,N
1569594255.6,286047003.2,N
1569594275.4,286047005.1,Y
1569594295.3,286047001.3,P
1569594315.1,286047004.1,P
1569594316.0,286047004.1,P
1569594335.8,286047001.9,N
1569594355.7,286047001.9,N
1569594375.5,286047001.8,N
1569594395.3,286047001.5,N
1569594415.2,286047002.0,N
1569594435.0,286047001.5,N
1569594435.9,286047001.5,N
1569594455.8,286047002.1,N
1569594475.6,286047001.5,N
1569594495.4,286047002.3,N
1569594515.3,286047000.0,N
1569594535.1,286046999.8,N
1569594555.9,286047002.8,N
1569594575.7,286047002.4,N
1569594595.5,286046999.9,N
1569594615.4,286046999.7,N
1569594635.2,286046999.8,N
1569594655.1,286047000.6,N
1569594656.0,286047000.6,N
1569594675.8,286047000.5,N
1569594695.6,286046998.1,N
1569594715.5,286047001.1,N
1569594735.3,286047000.0,N
1569594755.1,286047000.5,N
1569594775.9,286046998.1,N
1569594795.7,286047000.6,N
1569594815.6,286047000.9,N
1569594835.4,286047000.3,N
1569594855.2,286047000.9,N
1569594875.1,286046998.6,N
1569594876.0,286046998.6,N
1569594895.8,286046998.2,N
1569594915.7,286046998.2,N
1569594935.5,286046998.2,N
1569594955.3,286046999.0,N
1569594975.2,286046998.4,N
1569594995.0,286046999.1,N
1569594995.9,286046999.1,N
1569595015.8,286046999.3,N
1569595035.6,286047000.6,N
1569595055.4,286046998.2,N
1569595075.3,286046998.5,N
1569595095.1,286047000.8,N
1569595115.8,286047000.6,N
1569595135.7,286046999.3,N
1569595155.5,286046999.5,N
1569595175.4,286046998.4,N
1569595195.2,286046999.3,N
1569595215.0,286046999.5,N
1569595215.9,286046999.5,N
1569595235.8,286046997.8,N
1569595255.6,286046997.0,Y
1569595275.5,286046997.2,P
1569595295.3,286046996.2,P
1569595315.1,286046995.6,P
1569595335.9,286046997.4,N
1569595355.7,286046997.1,N
1569595375.5,286046997.0,N
1569595395.4,286046999.3,N
1569595415.2,286046998.3,N
1569595435.1,286046999.2,N
1569595436.0,286046999.2,N
1569595455.8,286046999.4,N
1569595475.6,286046996.6,N
1569595495.5,286046997.3,N
1569595515.3,286046997.4,N
1569595535.1,286046997.4,N
1569595555.9,286046995.6,Y
1569595575.7,286046998.9,P
1569595595.6,286046998.9,N
1569595615.4,286046999.2,N
1569595635.2,286046999.5,N
1569595655.1,286047000.0,N
1569595656.0,286047000.0,N
1569595675.8,286047000.5,N
1569595695.7,286047000.7,N
1569595715.5,286047002.8,Y
1569595735.3,286047005.5,P
1569595755.2,286047004.8,N
1569595775.0,286047007.0,N
1569595775.9,286047007.0,N
1569595795.8,286047008.8,Y
1569595815.6,286047003.3,P
1569595835.4,286047005.8,P
1569595855.3,286047004.5,P
1569595875.1,286047006.6,Y
1569595895.9,286047004.4,P
1569595915.7,286047004.1,P
1569595935.5,286047003.9,P
1569595955.4,286047004.4,Y
1569595975.2,286046999.0,P
1569595995.0,286046999.4,N
1569595996.0,286046999.4,N
1569596015.8,286046998.5,N
1569596035.6,286046999.6,N
1569596055.5,286046997.2,N
1569596075.3,286046997.7,N
1569596095.1,286046996.4,N
1569596115.9,286046993.8,N
1569596135.7,286046994.2,N
1569596155.6,286046993.8,N
1569596175.4,286046993.4,N
1569596195.2,286046996.0,N
1569596215.1,286046995.8,N
1569596216.0,286046995.8,N
1569596235.8,286046996.3,N
1569596255.7,286046996.0,N
1569596275.5,286046994.0,N
1569596295.3,286046997.6,N
1569596315.2,286046992.2,Y
1569596335.0,286046991.8,P
1569596335.9,286046991.8,P
1569596355.8,286046990.6,P
1569596375.6,286046989.4,Y
1569596395.4,286046997.5,P
